QPF
0.00 0.00 0.00 0.00 0.00 0.00 0.00 0.00 0.00 0.00 0.00 0.00 0.00 0.00 0.00 0.00 0.00 0.00 0.00 0.00 0.00 0.00 0.00 0.00 0.00 0.00 0.01 0.01 0.00 0.00 0.00 0.00 0.00 0.00 0.00 0.00 0.00 0.00 0.00 0.00 0.00 0.00 0.00
0.00 0.00 0.00 0.00 0.00 0.00 0.00 0.00 0.00 0.00 0.00 0.00 0.00 0.00 0.00 0.00 0.00 0.00 0.00 0.00 0.00 0.01 0.01 0.01 0.01 0.01 0.01 0.01 0.00 0.00 0.00 0.00 0.00 0.00 0.00 0.00 0.00 0.00 0.00 0.00 0.00 0.00 0.00
0.00 0.00 0.00 0.00 0.00 0.00 0.00 0.00 0.00 0.00 0.00 0.00 0.00 0.00 0.00 0.00 0.00 0.00 0.01 0.01 0.01 0.01 0.01 0.01 0.01 0.01 0.01 0.01 0.01 0.01 0.01 0.01 0.00 0.00 0.00 0.00 0.00 0.00 0.00 0.00 0.00 0.00 0.00
0.00 0.00 0.00 0.00 0.00 0.00 0.00 0.00 0.00 0.00 0.00 0.00 0.00 0.00 0.00 0.00 0.00 0.00 0.00 0.01 0.01 0.01 0.01 0.01 0.01 0.01 0.01 0.01 0.01 0.01 0.01 0.01 0.01 0.00 0.00 0.00 0.00 0.00 0.00 0.00 0.00 0.00 0.00
0.00 0.00 0.00 0.00 0.00 0.00 0.00 0.00 0.00 0.00 0.00 0.00 0.00 0.00 0.00 0.00 0.00 0.00 0.01 0.01 0.01 0.01 0.01 0.01 0.02 0.01 0.01 0.01 0.01 0.01 0.01 0.01 0.01 0.00 0.00 0.00 0.00 0.00 0.00 0.00 0.00 0.00 0.00
0.00 0.00 0.00 0.00 0.00 0.00 0.00 0.00 0.00 0.00 0.00 0.00 0.00 0.00 0.00 0.00 0.00 0.00 0.01 0.01 0.01 0.01 0.01 0.01 0.01 0.01 0.01 0.01 0.01 0.01 0.01 0.01 0.01 0.01 0.01 0.00 0.00 0.00 0.00 0.00 0.00 0.00 0.00
0.00 0.00 0.00 0.00 0.00 0.00 0.00 0.00 0.00 0.00 0.00 0.00 0.00 0.00 0.00 0.00 0.00 0.00 0.01 0.01 0.01 0.01 0.01 0.01 0.01 0.01 0.01 0.01 0.01 0.01 0.01 0.01 0.01 0.01 0.01 0.01 0.00 0.00 0.00 0.00 0.00 0.00 0.00
0.00 0.00 0.00 0.00 0.00 0.00 0.00 0.00 0.00 0.00 0.00 0.00 0.00 0.00 0.00 0.00 0.00 0.00 0.00 0.01 0.00 0.00 0.00 0.00 0.01 0.01 0.00 0.01 0.01 0.01 0.01 0.01 0.01 0.01 0.00 0.00 0.00 0.00 0.00 0.00 0.00 0.00 0.00
0.00 0.00 0.00 0.00 0.00 0.00 0.00 0.00 0.00 0.00 0.00 0.00 0.00 0.00 0.00 0.00 0.00 0.00 0.00 0.00 0.00 0.00 0.00 0.00 0.00 0.00 0.00 0.01 0.01 0.01 0.01 0.00 0.00 0.00 0.00 0.00 0.00 0.00 0.00 0.00 0.00 0.00 0.00
0.00 0.00 0.00 0.00 0.00 0.00 0.00 0.00 0.00 0.00 0.00 0.00 0.00 0.00 0.00 0.00 0.00 0.00 0.00 0.00 0.00 0.00 0.00 0.00 0.00 0.00 0.00 0.01 0.01 0.01 0.00 0.00 0.00 0.00 0.00 0.00 0.00 0.00 0.00 0.00 0.00 0.00 0.00
0.00 0.00 0.00 0.00 0.00 0.00 0.00 0.00 0.00 0.00 0.00 0.00 0.00 0.00 0.00 0.00 0.00 0.00 0.00 0.00 0.00 0.00 0.00 0.00 0.00 0.00 0.00 0.00 0.00 0.00 0.00 0.00 0.00 0.00 0.00 0.00 0.00 0.00 0.00 0.00 0.00 0.00 0.00
0.00 0.00 0.00 0.00 0.00 0.00 0.00 0.00 0.00 0.00 0.00 0.00 0.00 0.00 0.00 0.00 0.00 0.00 0.00 0.00 0.00 0.00 0.00 0.00 0.00 0.00 0.00 0.00 0.00 0.00 0.00 0.00 0.00 0.00 0.00 0.00 0.00 0.00 0.00 0.00 0.00 0.00 0.00
0.00 0.00 0.00 0.00 0.00 0.00 0.00 0.00 0.00 0.00 0.00 0.00 0.00 0.00 0.00 0.00 0.00 0.00 0.00 0.00 0.00 0.00 0.00 0.00 0.00 0.00 0.00 0.00 0.00 0.00 0.00 0.00 0.00 0.00 0.00 0.00 0.00 0.00 0.00 0.00 0.00 0.00 0.00
0.00 0.00 0.00 0.00 0.00 0.00 0.00 0.00 0.00 0.00 0.00 0.00 0.00 0.00 0.00 0.00 0.00 0.00 0.00 0.00 0.00 0.00 0.00 0.00 0.00 0.00 0.00 0.00 0.00 0.00 0.00 0.00 0.00 0.00 0.00 0.00 0.00 0.00 0.00 0.00 0.00 0.00 0.00
0.00 0.00 0.00 0.00 0.00 0.00 0.00 0.00 0.00 0.00 0.00 0.00 0.00 0.00 0.00 0.00 0.00 0.00 0.00 0.00 0.00 0.00 0.00 0.00 0.00 0.00 0.00 0.00 0.00 0.00 0.00 0.00 0.00 0.00 0.00 0.00 0.00 0.00 0.00 0.00 0.00 0.00 0.00
0.00 0.00 0.00 0.00 0.00 0.00 0.00 0.00 0.00 0.00 0.00 0.00 0.00 0.00 0.00 0.00 0.00 0.00 0.00 0.00 0.00 0.00 0.00 0.00 0.00 0.00 0.00 0.01 0.01 0.00 0.00 0.00 0.00 0.00 0.00 0.00 0.00 0.00 0.00 0.00 0.00 0.00 0.00
0.00 0.00 0.00 0.00 0.00 0.00 0.00 0.00 0.00 0.00 0.00 0.00 0.00 0.00 0.00 0.00 0.00 0.00 0.00 0.00 0.00 0.00 0.00 0.00 0.00 0.00 0.00 0.01 0.00 0.00 0.00 0.00 0.00 0.00 0.00 0.00 0.00 0.00 0.00 0.00 0.00 0.00 0.00
0.00 0.00 0.00 0.00 0.00 0.00 0.00 0.00 0.00 0.00 0.00 0.00 0.00 0.00 0.00 0.00 0.00 0.00 0.00 0.00 0.00 0.00 0.00 0.00 0.00 0.00 0.00 0.01 0.00 0.00 0.00 0.00 0.00 0.00 0.00 0.00 0.00 0.00 0.00 0.00 0.00 0.00 0.00
0.00 0.00 0.00 0.00 0.00 0.00 0.00 0.00 0.00 0.00 0.00 0.00 0.00 0.00 0.00 0.00 0.00 0.00 0.00 0.00 0.00 0.00 0.00 0.00 0.00 0.00 0.00 0.00 0.00 0.00 0.00 0.00 0.00 0.00 0.00 0.00 0.00 0.00 0.00 0.00 0.00 0.00 0.00
0.00 0.00 0.00 0.00 0.00 0.00 0.00 0.00 0.00 0.00 0.00 0.00 0.00 0.00 0.00 0.00 0.00 0.00 0.00 0.00 0.00 0.00 0.00 0.00 0.00 0.00 0.00 0.00 0.00 0.00 0.00 0.00 0.00 0.00 0.00 0.00 0.00 0.00 0.00 0.00 0.00 0.00 0.00
0.00 0.00 0.00 0.00 0.00 0.00 0.00 0.00 0.00 0.00 0.00 0.00 0.00 0.00 0.00 0.00 0.00 0.00 0.00 0.00 0.00 0.00 0.00 0.00 0.00 0.00 0.00 0.00 0.00 0.00 0.00 0.00 0.00 0.00 0.00 0.00 0.00 0.00 0.00 0.00 0.00 0.00 0.00
0.00 0.00 0.00 0.00 0.00 0.00 0.00 0.00 0.00 0.00 0.00 0.00 0.00 0.00 0.00 0.00 0.00 0.00 0.00 0.00 0.00 0.00 0.00 0.00 0.00 0.00 0.00 0.00 0.00 0.00 0.00 0.00 0.00 0.00 0.00 0.00 0.00 0.00 0.00 0.00 0.00 0.00 0.00
0.00 0.00 0.00 0.00 0.00 0.00 0.00 0.00 0.00 0.00 0.00 0.00 0.00 0.00 0.00 0.00 0.00 0.00 0.00 0.00 0.00 0.00 0.00 0.00 0.00 0.00 0.00 0.00 0.01 0.01 0.01 0.01 0.01 0.00 0.00 0.00 0.00 0.00 0.00 0.00 0.00 0.00 0.00
0.00 0.00 0.00 0.00 0.00 0.00 0.00 0.00 0.00 0.00 0.00 0.00 0.00 0.00 0.00 0.00 0.00 0.00 0.00 0.00 0.00 0.00 0.00 0.00 0.00 0.00 0.01 0.01 0.01 0.01 0.01 0.01 0.01 0.01 0.01 0.00 0.00 0.00 0.00 0.00 0.00 0.00 0.00
0.00 0.00 0.00 0.00 0.00 0.00 0.00 0.00 0.00 0.00 0.00 0.00 0.00 0.00 0.00 0.00 0.00 0.00 0.00 0.00 0.00 0.00 0.00 0.00 0.01 0.01 0.01 0.01 0.01 0.02 0.02 0.01 0.01 0.01 0.01 0.01 0.00 0.00 0.00 0.00 0.00 0.00 0.00
0.00 0.00 0.00 0.00 0.00 0.00 0.00 0.00 0.00 0.00 0.00 0.00 0.00 0.00 0.00 0.00 0.00 0.00 0.00 0.00 0.00 0.00 0.00 0.00 0.00 0.01 0.01 0.01 0.01 0.01 0.01 0.01 0.01 0.01 0.01 0.00 0.00 0.00 0.00 0.00 0.00 0.00 0.00
MSLP
1016.57 1017.05 1017.56 1018.07 1018.56 1019.04 1019.54 1020.06 1020.62 1021.20 1021.79 1022.37 1022.89 1023.32 1023.65 1023.89 1024.04 1024.15 1024.25 1024.38 1024.56 1024.82 1025.14 1025.52 1025.92 1026.31 1026.65 1026.94 1027.15 1027.27 1027.33 1027.33 1027.30 1027.25 1027.22 1027.22 1027.25 1027.34 1027.49 1027.68 1027.91 1028.17 1028.44
1015.91 1016.42 1016.92 1017.40 1017.85 1018.28 1018.71 1019.19 1019.73 1020.32 1020.95 1021.59 1022.18 1022.69 1023.09 1023.38 1023.56 1023.68 1023.77 1023.87 1024.03 1024.27 1024.57 1024.95 1025.35 1025.76 1026.13 1026.44 1026.68 1026.85 1026.94 1026.98 1026.99 1026.99 1027.01 1027.05 1027.14 1027.28 1027.48 1027.73 1028.02 1028.33 1028.66
1015.18 1015.70 1016.20 1016.65 1017.05 1017.41 1017.79 1018.21 1018.71 1019.29 1019.93 1020.60 1021.25 1021.83 1022.30 1022.64 1022.87 1023.01 1023.11 1023.21 1023.35 1023.56 1023.86 1024.22 1024.62 1025.03 1025.43 1025.77 1026.05 1026.26 1026.40 1026.51 1026.58 1026.65 1026.73 1026.83 1026.98 1027.18 1027.42 1027.71 1028.05 1028.41 1028.79
1014.36 1014.89 1015.39 1015.81 1016.17 1016.47 1016.78 1017.14 1017.59 1018.13 1018.77 1019.45 1020.13 1020.75 1021.28 1021.68 1021.96 1022.14 1022.27 1022.39 1022.53 1022.74 1023.03 1023.38 1023.78 1024.20 1024.61 1024.99 1025.31 1025.58 1025.80 1025.98 1026.14 1026.28 1026.44 1026.62 1026.82 1027.06 1027.34 1027.66 1028.03 1028.42 1028.84
1013.44 1013.99 1014.50 1014.91 1015.24 1015.50 1015.76 1016.05 1016.44 1016.94 1017.53 1018.20 1018.88 1019.52 1020.08 1020.54 1020.87 1021.11 1021.28 1021.44 1021.62 1021.85 1022.15 1022.51 1022.92 1023.35 1023.79 1024.21 1024.59 1024.93 1025.23 1025.50 1025.75 1025.99 1026.22 1026.46 1026.71 1026.98 1027.28 1027.62 1027.99 1028.40 1028.84
1012.49 1013.06 1013.58 1014.00 1014.32 1014.56 1014.78 1015.03 1015.35 1015.78 1016.32 1016.93 1017.58 1018.21 1018.79 1019.27 1019.66 1019.96 1020.20 1020.42 1020.66 1020.94 1021.27 1021.67 1022.11 1022.58 1023.05 1023.52 1023.97 1024.39 1024.78 1025.14 1025.48 1025.81 1026.11 1026.41 1026.69 1026.99 1027.29 1027.62 1027.99 1028.39 1028.83
1011.59 1012.18 1012.72 1013.16 1013.49 1013.73 1013.92 1014.13 1014.39 1014.75 1015.20 1015.74 1016.32 1016.91 1017.47 1017.96 1018.39 1018.76 1019.08 1019.39 1019.71 1020.07 1020.47 1020.92 1021.41 1021.93 1022.45 1022.98 1023.50 1024.00 1024.48 1024.94 1025.37 1025.77 1026.15 1026.49 1026.80 1027.10 1027.40 1027.71 1028.05 1028.44 1028.86
1010.82 1011.44 1012.00 1012.47 1012.82 1013.07 1013.25 1013.42 1013.63 1013.90 1014.26 1014.69 1015.18 1015.69 1016.20 1016.69 1017.15 1017.58 1017.98 1018.39 1018.81 1019.27 1019.76 1020.29 1020.85 1021.42 1022.01 1022.60 1023.19 1023.77 1024.33 1024.88 1025.39 1025.87 1026.31 1026.69 1027.03 1027.33 1027.61 1027.90 1028.21 1028.56 1028.96
1010.28 1010.90 1011.48 1011.97 1012.34 1012.60 1012.79 1012.93 1013.08 1013.27 1013.52 1013.84 1014.21 1014.63 1015.08 1015.54 1016.00 1016.48 1016.96 1017.47 1018.00 1018.57 1019.16 1019.78 1020.41 1021.06 1021.70 1022.35 1023.00 1023.65 1024.29 1024.91 1025.50 1026.05 1026.54 1026.96 1027.33 1027.64 1027.91 1028.18 1028.46 1028.77 1029.13
1009.99 1010.59 1011.17 1011.67 1012.05 1012.33 1012.51 1012.63 1012.73 1012.85 1012.99 1013.19 1013.45 1013.77 1014.13 1014.55 1015.01 1015.52 1016.07 1016.67 1017.31 1017.97 1018.67 1019.37 1020.07 1020.78 1021.48 1022.18 1022.88 1023.58 1024.28 1024.96 1025.62 1026.23 1026.78 1027.25 1027.65 1027.98 1028.26 1028.51 1028.76 1029.04 1029.36
1009.91 1010.48 1011.03 1011.51 1011.89 1012.17 1012.36 1012.47 1012.54 1012.59 1012.66 1012.76 1012.91 1013.12 1013.41 1013.78 1014.22 1014.75 1015.35 1016.02 1016.74 1017.49 1018.26 1019.03 1019.79 1020.54 1021.28 1022.01 1022.74 1023.48 1024.22 1024.96 1025.67 1026.34 1026.95 1027.48 1027.93 1028.29 1028.59 1028.85 1029.09 1029.34 1029.61
1009.93 1010.44 1010.94 1011.39 1011.76 1012.04 1012.23 1012.35 1012.41 1012.43 1012.45 1012.48 1012.56 1012.70 1012.92 1013.24 1013.67 1014.20 1014.83 1015.54 1016.31 1017.12 1017.94 1018.76 1019.55 1020.32 1021.07 1021.81 1022.56 1023.32 1024.09 1024.86 1025.62 1026.35 1027.02 1027.61 1028.12 1028.53 1028.87 1029.14 1029.38 1029.61 1029.85
1009.90 1010.33 1010.77 1011.18 1011.53 1011.82 1012.03 1012.18 1012.26 1012.29 1012.30 1012.32 1012.36 1012.46 1012.65 1012.94 1013.35 1013.88 1014.52 1015.25 1016.05 1016.88 1017.71 1018.53 1019.33 1020.09 1020.83 1021.57 1022.31 1023.08 1023.86 1024.67 1025.47 1026.25 1026.98 1027.63 1028.20 1028.67 1029.04 1029.35 1029.59 1029.81 1030.01
1009.68 1010.04 1010.41 1010.78 1011.12 1011.43 1011.68 1011.88 1012.02 1012.11 1012.17 1012.22 1012.28 1012.39 1012.58 1012.86 1013.27 1013.79 1014.42 1015.15 1015.94 1016.75 1017.58 1018.38 1019.15 1019.88 1020.60 1021.31 1022.04 1022.79 1023.59 1024.41 1025.24 1026.06 1026.84 1027.55 1028.17 1028.69 1029.10 1029.43 1029.69 1029.90 1030.07
1009.19 1009.48 1009.80 1010.14 1010.49 1010.83 1011.15 1011.43 1011.67 1011.86 1012.02 1012.15 1012.28 1012.44 1012.66 1012.97 1013.38 1013.90 1014.51 1015.21 1015.97 1016.75 1017.53 1018.29 1019.01 1019.71 1020.39 1021.07 1021.78 1022.52 1023.31 1024.14 1024.99 1025.83 1026.65 1027.39 1028.05 1028.61 1029.05 1029.40 1029.66 1029.85 1030.00
1008.42 1008.67 1008.95 1009.29 1009.66 1010.06 1010.46 1010.85 1011.22 1011.54 1011.83 1012.08 1012.32 1012.57 1012.85 1013.20 1013.63 1014.14 1014.74 1015.40 1016.11 1016.84 1017.56 1018.26 1018.93 1019.58 1020.22 1020.88 1021.56 1022.29 1023.08 1023.91 1024.76 1025.62 1026.44 1027.20 1027.87 1028.44 1028.89 1029.24 1029.50 1029.68 1029.81
1007.47 1007.70 1007.98 1008.33 1008.74 1009.21 1009.71 1010.22 1010.72 1011.19 1011.62 1012.00 1012.37 1012.72 1013.08 1013.48 1013.93 1014.45 1015.02 1015.64 1016.30 1016.96 1017.62 1018.27 1018.89 1019.50 1020.11 1020.75 1021.42 1022.14 1022.92 1023.75 1024.60 1025.44 1026.26 1027.01 1027.66 1028.21 1028.65 1028.98 1029.22 1029.38 1029.50
1006.52 1006.75 1007.06 1007.44 1007.90 1008.43 1009.02 1009.63 1010.25 1010.84 1011.40 1011.91 1012.39 1012.84 1013.28 1013.73 1014.21 1014.72 1015.27 1015.86 1016.46 1017.07 1017.67 1018.27 1018.85 1019.43 1020.03 1020.66 1021.34 1022.06 1022.84 1023.65 1024.49 1025.31 1026.09 1026.81 1027.43 1027.94 1028.34 1028.63 1028.84 1028.99 1029.09
1005.76 1006.03 1006.36 1006.78 1007.28 1007.86 1008.51 1009.19 1009.89 1010.56 1011.21 1011.81 1012.37 1012.89 1013.39 1013.88 1014.38 1014.89 1015.42 1015.96 1016.52 1017.08 1017.65 1018.21 1018.77 1019.35 1019.95 1020.58 1021.27 1022.00 1022.78 1023.59 1024.40 1025.19 1025.93 1026.59 1027.16 1027.61 1027.96 1028.22 1028.40 1028.52 1028.61
1005.36 1005.67 1006.04 1006.49 1007.01 1007.61 1008.27 1008.97 1009.69 1010.39 1011.07 1011.70 1012.30 1012.86 1013.38 1013.89 1014.39 1014.90 1015.41 1015.93 1016.45 1016.98 1017.51 1018.05 1018.61 1019.19 1019.80 1020.46 1021.16 1021.91 1022.69 1023.49 1024.28 1025.03 1025.72 1026.33 1026.84 1027.24 1027.54 1027.75 1027.90 1028.01 1028.10
1005.41 1005.77 1006.17 1006.62 1007.14 1007.72 1008.34 1009.00 1009.67 1010.34 1010.98 1011.60 1012.18 1012.73 1013.25 1013.76 1014.25 1014.75 1015.24 1015.74 1016.24 1016.74 1017.26 1017.79 1018.35 1018.94 1019.57 1020.24 1020.97 1021.73 1022.52 1023.31 1024.08 1024.80 1025.44 1025.99 1026.44 1026.80 1027.05 1027.23 1027.36 1027.46 1027.56
1005.90 1006.29 1006.71 1007.15 1007.63 1008.14 1008.69 1009.25 1009.82 1010.39 1010.95 1011.50 1012.02 1012.53 1013.03 1013.51 1013.99 1014.47 1014.95 1015.43 1015.91 1016.40 1016.90 1017.43 1017.99 1018.59 1019.23 1019.93 1020.67 1021.44 1022.23 1023.01 1023.75 1024.44 1025.05 1025.56 1025.97 1026.29 1026.52 1026.68 1026.80 1026.91 1027.02
1006.72 1007.14 1007.55 1007.97 1008.38 1008.80 1009.23 1009.67 1010.11 1010.54 1010.98 1011.42 1011.86 1012.31 1012.75 1013.21 1013.67 1014.13 1014.59 1015.06 1015.53 1016.00 1016.50 1017.02 1017.57 1018.17 1018.81 1019.51 1020.25 1021.02 1021.80 1022.57 1023.30 1023.96 1024.55 1025.03 1025.42 1025.72 1025.94 1026.10 1026.23 1026.36 1026.49
1007.72 1008.15 1008.55 1008.92 1009.25 1009.57 1009.87 1010.17 1010.46 1010.76 1011.06 1011.39 1011.74 1012.11 1012.51 1012.92 1013.36 1013.80 1014.25 1014.70 1015.16 1015.62 1016.09 1016.59 1017.12 1017.71 1018.34 1019.02 1019.75 1020.50 1021.27 1022.02 1022.73 1023.38 1023.94 1024.42 1024.80 1025.10 1025.33 1025.51 1025.67 1025.81 1025.97
1008.73 1009.16 1009.54 1009.85 1010.11 1010.34 1010.52 1010.68 1010.84 1011.01 1011.20 1011.42 1011.68 1011.99 1012.33 1012.72 1013.13 1013.55 1013.99 1014.42 1014.86 1015.29 1015.73 1016.20 1016.70 1017.25 1017.84 1018.49 1019.19 1019.91 1020.65 1021.38 1022.08 1022.71 1023.27 1023.75 1024.15 1024.47 1024.72 1024.93 1025.11 1025.29 1025.47
1009.62 1010.04 1010.39 1010.66 1010.87 1011.01 1011.11 1011.17 1011.23 1011.30 1011.39 1011.53 1011.73 1011.98 1012.29 1012.64 1013.02 1013.43 1013.84 1014.25 1014.65 1015.05 1015.45 1015.87 1016.32 1016.81 1017.36 1017.96 1018.61 1019.30 1020.01 1020.71 1021.39 1022.01 1022.58 1023.07 1023.48 1023.83 1024.11 1024.36 1024.58 1024.79 1025.00
Thickness
5691 5689 5687 5685 5683 5683 5682 5681 5679 5676 5674 5672 5670 5668 5667 5667 5666 5666 5665 5663 5661 5658 5656 5654 5652 5649 5647 5645 5642 5638 5635 5632 5629 5627 5626 5623 5618 5614 5608 5604 5599 5593 5588
5687 5685 5685 5684 5684 5684 5683 5682 5681 5678 5676 5674 5672 5671 5669 5668 5667 5665 5664 5662 5660 5658 5655 5653 5651 5647 5645 5642 5638 5635 5632 5628 5624 5623 5620 5617 5613 5606 5600 5595 5590 5585 5579
5688 5687 5684 5685 5686 5686 5686 5685 5683 5681 5678 5674 5671 5670 5668 5668 5665 5664 5663 5661 5659 5657 5655 5652 5649 5646 5643 5640 5636 5632 5629 5625 5619 5616 5614 5610 5607 5601 5594 5587 5582 5576 5570
5688 5689 5687 5687 5689 5690 5688 5686 5684 5682 5679 5675 5674 5672 5671 5670 5670 5667 5664 5661 5658 5656 5654 5651 5648 5645 5641 5638 5634 5629 5625 5622 5616 5609 5605 5602 5599 5593 5589 5581 5573 5566 5560
5690 5690 5691 5691 5692 5690 5688 5686 5684 5682 5680 5678 5676 5673 5673 5673 5671 5668 5664 5661 5658 5655 5652 5649 5646 5642 5639 5635 5631 5625 5621 5617 5613 5606 5599 5593 5588 5583 5579 5575 5567 5559 5550
5690 5690 5691 5689 5689 5688 5686 5685 5684 5683 5681 5679 5677 5676 5675 5672 5669 5666 5662 5660 5657 5654 5651 5647 5643 5640 5636 5632 5627 5622 5617 5612 5607 5601 5595 5590 5584 5578 5572 5566 5560 5551 5541
5687 5687 5686 5685 5685 5685 5684 5684 5683 5683 5682 5680 5678 5678 5676 5672 5669 5666 5661 5658 5655 5652 5649 5644 5640 5636 5632 5627 5622 5616 5610 5605 5599 5594 5587 5581 5576 5569 5563 5557 5550 5541 5533
5681 5682 5683 5683 5683 5682 5682 5682 5682 5683 5681 5680 5679 5677 5674 5671 5670 5666 5662 5658 5655 5652 5647 5642 5637 5632 5626 5621 5615 5609 5603 5597 5590 5584 5578 5571 5564 5557 5552 5546 5539 5532 5525
5674 5675 5676 5676 5677 5677 5677 5678 5679 5679 5679 5678 5677 5675 5673 5670 5668 5664 5659 5655 5652 5647 5642 5637 5631 5625 5619 5613 5607 5601 5593 5587 5580 5573 5567 5560 5552 5545 5538 5533 5527 5523 5520
5666 5667 5667 5667 5668 5669 5670 5670 5672 5674 5675 5674 5673 5671 5669 5667 5664 5660 5656 5652 5647 5641 5635 5629 5623 5617 5611 5604 5597 5590 5583 5576 5569 5562 5556 5548 5541 5533 5525 5519 5513 5508 5504
5658 5659 5658 5657 5657 5658 5660 5661 5664 5665 5666 5667 5666 5664 5663 5661 5657 5654 5651 5646 5640 5634 5628 5622 5615 5608 5601 5595 5588 5580 5572 5566 5558 5550 5544 5537 5529 5521 5514 5507 5500 5493 5487
5647 5647 5646 5645 5646 5648 5650 5652 5654 5656 5657 5657 5657 5656 5655 5652 5650 5647 5643 5638 5631 5626 5620 5614 5606 5599 5591 5585 5579 5570 5562 5556 5548 5540 5533 5525 5517 5510 5502 5495 5487 5480 5472
5634 5633 5634 5634 5636 5638 5639 5642 5643 5645 5646 5646 5646 5646 5645 5643 5642 5638 5633 5627 5621 5615 5609 5604 5597 5589 5582 5574 5568 5560 5552 5545 5537 5530 5522 5514 5506 5498 5490 5482 5475 5467 5458
5624 5624 5625 5625 5625 5626 5629 5631 5632 5633 5633 5634 5635 5635 5634 5633 5630 5626 5621 5615 5610 5605 5599 5593 5587 5579 5572 5564 5556 5549 5541 5532 5524 5517 5510 5502 5495 5486 5478 5470 5462 5453 5445
5616 5617 5618 5618 5617 5617 5618 5619 5620 5620 5620 5622 5622 5623 5621 5619 5615 5611 5607 5602 5597 5593 5586 5580 5572 5566 5559 5552 5545 5537 5529 5521 5511 5503 5496 5488 5481 5473 5465 5457 5449 5441 5433
5613 5612 5611 5610 5610 5610 5610 5609 5609 5608 5608 5609 5609 5607 5605 5602 5599 5596 5592 5587 5582 5577 5571 5565 5560 5554 5547 5540 5533 5526 5517 5509 5500 5491 5482 5474 5466 5458 5450 5443 5435 5429 5421
5610 5608 5608 5608 5606 5604 5602 5601 5599 5596 5595 5594 5592 5590 5589 5587 5584 5581 5577 5573 5568 5563 5557 5551 5546 5541 5534 5528 5520 5512 5505 5497 5488 5479 5471 5461 5453 5445 5437 5429 5422 5414 5407
5604 5604 5603 5603 5600 5596 5593 5590 5587 5584 5582 5580 5578 5576 5575 5572 5569 5566 5563 5559 5554 5549 5544 5538 5533 5528 5521 5514 5507 5498 5491 5483 5475 5467 5459 5450 5441 5433 5425 5417 5409 5402 5394
5596 5597 5595 5594 5590 5586 5583 5578 5574 5572 5570 5569 5566 5564 5561 5558 5555 5552 5549 5544 5539 5535 5530 5524 5519 5514 5507 5500 5493 5485 5477 5468 5460 5453 5445 5437 5429 5420 5412 5405 5397 5389 5382
5583 5583 5582 5579 5576 5573 5570 5566 5563 5561 5560 5558 5554 5551 5547 5544 5542 5538 5534 5529 5525 5521 5515 5509 5504 5500 5494 5487 5479 5472 5464 5455 5447 5438 5430 5423 5416 5408 5401 5393 5386 5378 5370
5567 5567 5566 5564 5563 5559 5556 5554 5552 5551 5548 5543 5539 5536 5534 5531 5528 5523 5519 5515 5510 5504 5498 5493 5488 5483 5478 5472 5466 5459 5452 5444 5435 5426 5419 5411 5404 5396 5388 5381 5374 5366 5357
5549 5549 5549 5547 5545 5543 5542 5542 5540 5536 5532 5529 5526 5522 5519 5516 5512 5508 5504 5499 5495 5489 5483 5477 5471 5465 5461 5456 5450 5444 5437 5430 5423 5415 5407 5399 5391 5383 5376 5368 5360 5352 5342
5530 5530 5530 5529 5528 5527 5527 5527 5524 5520 5517 5514 5510 5507 5503 5500 5497 5494 5490 5485 5480 5477 5471 5465 5459 5451 5445 5440 5435 5428 5422 5415 5408 5401 5394 5385 5377 5369 5362 5354 5346 5337 5328
5511 5511 5513 5512 5510 5509 5508 5508 5506 5504 5502 5500 5496 5492 5488 5485 5481 5479 5476 5473 5469 5465 5459 5454 5447 5439 5431 5426 5420 5414 5406 5399 5392 5385 5377 5370 5362 5354 5347 5339 5330 5322 5315
5493 5494 5496 5496 5494 5493 5492 5490 5489 5488 5487 5484 5481 5477 5475 5471 5467 5464 5461 5459 5457 5455 5450 5445 5439 5430 5423 5418 5411 5404 5396 5388 5380 5371 5363 5355 5347 5340 5332 5324 5316 5307 5299
5476 5477 5477 5477 5476 5475 5474 5473 5472 5472 5471 5468 5465 5463 5459 5455 5452 5448 5443 5441 5438 5435 5432 5428 5424 5418 5414 5405 5398 5390 5383 5375 5366 5357 5351 5344 5336 5329 5321 5313 5304 5295 5287